Retour au catalogue

KUIPER-00496

ActifCommunicationsVLEO
NORAD 69597·PAYLOAD·🇺🇸 United States

Lancé Jun 17, 2026 depuis Guiana Space Centre

Loading…

Prochains Passages (prochaines 24 heures)

TLE

FraisSource: CelesTrak SupGP

Époque: Sep 14, 2026, 22:13 UTC

1 69597C 26140F   26257.92575232 -.01051400  00000+0 -72781-1 0  2571
2 69597  51.8901 328.9416 0007515 257.9063  28.4980 15.06186939    15

Suivez KUIPER-00496 en temps réel avec AllMySat

Download on the App Store